This is the latest recevied weather packets stored in our database for station/object KY0TEQ-13. If no packets are shown the sender has not sent any weather packets the latest 10 day(s).
| Time | Temp. | Humidity | Pressure | Rain* | Wind** | Luminosity | Snow |
|---|---|---|---|---|---|---|---|
| 1777650877 | 10° C | 44% | 1302.4 hPa | 0 mm | - | 525 W/m² | - |
| 1777649968 | 10° C | 40% | 1302.7 hPa | 0 mm | - | 481 W/m² | - |
| 1777649666 | 10.56° C | 40% | 1302.6 hPa | 0 mm | - | 463 W/m² | - |
| 1777649361 | 10.56° C | 40% | 1302.6 hPa | 0 mm | - | 450 W/m² | - |
| 1777649059 | 10° C | 42% | 1302.7 hPa | 0 mm | - | 435 W/m² | - |
| 1777648756 | 10° C | 41% | 1302.8 hPa | 0 mm | - | 420 W/m² | - |
| 1777648453 | 10° C | 39% | 1302.4 hPa | 0 mm | - | 401 W/m² | - |
| 1777648149 | 9.44° C | 40% | 1302.7 hPa | 0 mm | - | 385 W/m² | - |
| 1777647845 | 9.44° C | 38% | 1302.7 hPa | 0 mm | - | 361 W/m² | - |
| 1777646936 | 9.44° C | 36% | 1302.4 hPa | 0 mm | - | 307 W/m² | - |
| 1777646327 | 9.44° C | 35% | 1302.7 hPa | 0 mm | - | 269 W/m² | - |
| 1777646024 | 8.89° C | 36% | 1302.4 hPa | 0 mm | - | 237 W/m² | - |
| 1777645720 | 8.89° C | 35% | 1302.6 hPa | 0 mm | - | 236 W/m² | - |
| 1777645417 | 8.33° C | 36% | 1302.4 hPa | 0 mm | - | 227 W/m² | - |
| 1777645112 | 8.33° C | 37% | 1302.6 hPa | 0 mm | - | 205 W/m² | - |
| 1777644810 | 7.78° C | 36% | 1302.4 hPa | 0 mm | - | 189 W/m² | - |
| 1777644508 | 7.78° C | 38% | 1302.3 hPa | 0 mm | - | 174 W/m² | - |
| 1777644203 | 7.22° C | 39% | 1302.2 hPa | 0 mm | - | 157 W/m² | - |
| 1777643900 | 6.67° C | 39% | 1302.3 hPa | 0 mm | - | 151 W/m² | - |
| 1777643598 | 6.67° C | 40% | 1302.3 hPa | 0 mm | - | 132 W/m² | - |
| 1777643295 | 6.11° C | 42% | 1302.2 hPa | 0 mm | - | 98 W/m² | - |
| 1777642687 | 5.56° C | 42% | 1302.2 hPa | 0 mm | - | 90 W/m² | - |
| 1777642385 | 5° C | 43% | 1302.4 hPa | 0 mm | - | 97 W/m² | - |
| 1777642081 | 4.44° C | 45% | 1302.1 hPa | 0 mm | - | 85 W/m² | - |
| 1777641777 | 4.44° C | 45% | 1302.2 hPa | 0 mm | - | 51 W/m² | - |
* Rain latest hour (hover to see other rain measurements)
** Current wind speed in m/s (hover to see current wind gust speed)